[[{"header":{"parameterUnit":"m.s-1","parameterCategory":2,"la1":30.2992,"la2":30.254,"lo1":-89.0895,"lo2":-89.0443,"dy":0.0025,"dx":0.0025,"nx":19,"ny":19,"refTime":"2026-05-23T21:00:00:Z","depth":"0","parameterNumber":2,"parameterNumberName":"U-component_of_CURRENTS"},"data":[0,0,0,0.057,0.0572,0.0643,0.0643,0.0645,0.0645,0,0,0,0,0,0,0,0,0,0,0,0.0533,0.0534,0.057,0.0572,0.0643,0.0643,0.0645,0.0645,0,0,0,0,0,0,0,0,0,0,0,0.0533,0.0533,0.0534,0.0572,0.0643,0.0643,0.0645,0.0611,0,0,0,0,0,0,0,0,0,0,0.0552,0.0523,0.0533,0.0534,0.0573,0.0643,0.0643,0.061,0.0613,0.059,0,0.0604,0,0.0633,0.0644,0.0644,0,0,0,0.0561,0.052,0.0556,0.0534,0.0573,0.0643,0.0608,0.0612,0.0615,0.0594,0.0604,0.0606,0.0633,0.0643,0.0643,0.0637,0.0637,0,0,0.0557,0.0529,0.0554,0.0558,0.0593,0.0605,0.061,0.0615,0.0607,0.0604,0.0606,0.0633,0.0643,0.0643,0.0637,0.0637,0,0,0,0.0553,0.0525,0.0562,0.0556,0.0581,0.0608,0.0613,0.0606,0.0623,0.0607,0.0633,0.0643,0.0643,0.0637,0.0637,0.0686,0,0,0,0.055,0.0525,0.056,0.0541,0.0582,0.0605,0.0604,0.0622,0.0625,0.0633,0.0643,0.0643,0.0637,0.0637,0.0685,0.0697,0,0,0,0.053,0.0522,0.0535,0.054,0.0579,0.0606,0.0623,0.0624,0.0641,0.0644,0.0643,0.0637,0.0637,0.0683,0.0695,0.0721,0,0,0,0.0492,0.0504,0.0534,0.0555,0.0579,0.0631,0.0623,0.0648,0.0652,0.0643,0.0637,0.0637,0.0683,0.0693,0.0719,0.0739,0.0748,0,0,0.0488,0.0502,0.0519,0.0549,0.0605,0.0621,0.0658,0.0658,0.0643,0.0627,0.0627,0.0685,0.0694,0.072,0.0743,0.0752,0,0,0,0.0507,0.0521,0.0542,0.0583,0.0626,0.0662,0.0674,0.0677,0.0679,0.0649,0.0673,0.0676,0.0692,0.07,0.0707,0.0759,0.0637,0.0637,0.0637,0.0453,0.0505,0.0542,0.0607,0.0638,0.0686,0.0708,0.071,0.0695,0.0702,0.0708,0.0747,0.0757,0.0762,0.0815,0.0702,0.0703,0.0703,0.0703,0.0461,0.049,0.055,0.0605,0.0655,0.0686,0.0732,0.074,0.0766,0.074,0.0753,0.074,0.0772,0.0826,0.0706,0.0705,0.0705,0.0705,0.0704,0.0434,0.0456,0.0499,0.0576,0.0634,0.0689,0.0738,0.0771,0.0793,0.0817,0.0819,0.0819,0.0874,0.0827,0.0827,0.0827,0.0827,0.0827,0.0828,0.0382,0.0433,0.0471,0.055,0.0594,0.0657,0.0741,0.078,0.0843,0.0864,0.0864,0.0893,0.0785,0.0788,0.083,0.083,0.0829,0.0829,0.0829,0.0359,0.0374,0.0436,0.0479,0.0582,0.0644,0.072,0.0821,0.0866,0.0904,0.0984,0.089,0.0875,0.0869,0.0873,0.0935,0.0935,0.0935,0.0935,0.0322,0.0341,0.0416,0.0481,0.0555,0.0641,0.0723,0.0819,0.0959,0.1035,0.1057,0.1046,0.1039,0.1032,0.1023,0.103,0.113,0.113,0.113,0.0305,0.034,0.038,0.0462,0.0551,0.0638,0.072,0.0823,0.1038,0.1143,0.113,0.1122,0.1108,0.1093,0.1079,0.1062,0.1071,0,0]},{"header":{"parameterUnit":"m.s-1","parameterCategory":2,"la1":30.2992,"la2":30.254,"lo1":-89.0895,"lo2":-89.0443,"dy":0.0025,"dx":0.0025,"nx":19,"ny":19,"refTime":"2026-05-23T21:00:00:Z","depth":"0","parameterNumber":3,"parameterNumberName":"V-component_of_CURRENTS"},"data":[0,0,0,-0.0881,-0.0883,-0.0971,-0.0971,-0.1058,-0.1058,0,0,0,0,0,0,0,0,0,0,0,-0.0845,-0.0845,-0.0881,-0.0883,-0.0971,-0.0971,-0.1058,-0.1058,0,0,0,0,0,0,0,0,0,0,0,-0.0844,-0.0845,-0.0845,-0.0883,-0.0971,-0.0971,-0.1058,-0.0999,0,0,0,0,0,0,0,0,0,0,-0.0917,-0.088,-0.0845,-0.0845,-0.0884,-0.0971,-0.0971,-0.0996,-0.1002,-0.1009,0,-0.1018,0,-0.1041,-0.1063,-0.1063,0,0,0,-0.0887,-0.0875,-0.0904,-0.0845,-0.0885,-0.097,-0.0932,-0.1,-0.1007,-0.1017,-0.1019,-0.1023,-0.1042,-0.1064,-0.1064,-0.1115,-0.1115,0,0,-0.0883,-0.0857,-0.0899,-0.0908,-0.09,-0.093,-0.0935,-0.1004,-0.1004,-0.102,-0.1025,-0.1044,-0.1064,-0.1065,-0.1115,-0.1115,0,0,0,-0.0866,-0.0854,-0.0882,-0.0904,-0.0923,-0.0932,-0.0938,-0.1001,-0.1012,-0.1026,-0.1045,-0.1065,-0.1065,-0.1115,-0.1115,-0.1083,0,0,0,-0.0863,-0.0844,-0.0879,-0.0865,-0.0921,-0.0966,-0.0933,-0.1007,-0.1016,-0.1044,-0.1065,-0.1066,-0.1115,-0.1115,-0.1083,-0.1049,0,0,0,-0.0842,-0.0842,-0.0851,-0.0864,-0.0901,-0.0965,-0.0981,-0.101,-0.1027,-0.1064,-0.1066,-0.1115,-0.1115,-0.1084,-0.1051,-0.1032,0,0,0,-0.0815,-0.0817,-0.085,-0.0862,-0.09,-0.095,-0.098,-0.1019,-0.1048,-0.1065,-0.1115,-0.1115,-0.1084,-0.1052,-0.1033,-0.0981,-0.0971,0,0,-0.0802,-0.0815,-0.0824,-0.0856,-0.0887,-0.0939,-0.0972,-0.1021,-0.1051,-0.1091,-0.1093,-0.1083,-0.1051,-0.1032,-0.0985,-0.0974,0,0,0,-0.081,-0.0812,-0.0829,-0.0856,-0.0904,-0.0942,-0.1,-0.1021,-0.1061,-0.1069,-0.1094,-0.1074,-0.1063,-0.1036,-0.1027,-0.0987,-0.1116,-0.1116,-0.1116,-0.0741,-0.0781,-0.0796,-0.0849,-0.0881,-0.0947,-0.0973,-0.1014,-0.1052,-0.1062,-0.1056,-0.1028,-0.0999,-0.0992,-0.0951,-0.1077,-0.1077,-0.1077,-0.1077,-0.0715,-0.0721,-0.0771,-0.08,-0.0849,-0.0881,-0.0948,-0.0977,-0.1003,-0.1037,-0.1029,-0.1013,-0.098,-0.0941,-0.1075,-0.1075,-0.1075,-0.1076,-0.1076,-0.0663,-0.0673,-0.0702,-0.0744,-0.0771,-0.0836,-0.0852,-0.0905,-0.0955,-0.0953,-0.0933,-0.0933,-0.089,-0.0956,-0.0956,-0.0956,-0.0956,-0.0955,-0.0955,-0.0595,-0.0628,-0.0639,-0.0684,-0.0703,-0.0732,-0.0793,-0.0813,-0.0844,-0.0878,-0.0878,-0.087,-0.0991,-0.0986,-0.0952,-0.0952,-0.0953,-0.0953,-0.0953,-0.0533,-0.0549,-0.0573,-0.0591,-0.0636,-0.0642,-0.0696,-0.0717,-0.074,-0.074,-0.0745,-0.0845,-0.0846,-0.0853,-0.0845,-0.0777,-0.0777,-0.0777,-0.0777,-0.0477,-0.0491,-0.0521,-0.0546,-0.0569,-0.0602,-0.0586,-0.0607,-0.0632,-0.0632,-0.065,-0.0665,-0.0674,-0.0667,-0.0678,-0.0668,-0.0555,-0.0555,-0.0555,-0.0435,-0.046,-0.0467,-0.0513,-0.0544,-0.0557,-0.053,-0.0498,-0.0527,-0.0544,-0.0602,-0.0611,-0.0635,-0.0652,-0.0647,-0.0666,-0.0652,0,0]}],[{"header":{"parameterUnit":"m.s-1","parameterCategory":2,"la1":30.2992,"la2":30.254,"lo1":-89.0895,"lo2":-89.0443,"dy":0.0025,"dx":0.0025,"nx":19,"ny":19,"refTime":"2026-05-23T21:00:00:Z","depth":"2","parameterNumber":2,"parameterNumberName":"U-component_of_CURRENTS"},"data":[0,0,0,-0.1178,-0.1179,-0.1241,-0.1242,-0.1343,-0.1344,0,0,0,0,0,0,0,0,0,0,0,-0.1149,-0.1149,-0.1177,-0.1179,-0.1241,-0.1242,-0.1343,-0.1344,0,0,0,0,0,0,0,0,0,0,0,-0.1149,-0.1149,-0.1149,-0.1179,-0.1241,-0.1242,-0.1342,-0.1292,0,0,0,0,0,0,0,0,0,0,-0.1229,-0.1197,-0.1149,-0.1149,-0.1179,-0.1241,-0.1242,-0.1289,-0.1295,-0.1318,0,-0.1317,0,-0.1333,-0.135,-0.1351,0,0,0,-0.1186,-0.1192,-0.1209,-0.1149,-0.118,-0.1241,-0.1215,-0.1292,-0.1299,-0.1326,-0.1319,-0.1323,-0.1335,-0.1351,-0.1351,-0.1492,-0.1493,0,0,-0.1183,-0.1165,-0.1204,-0.1212,-0.1183,-0.1213,-0.1217,-0.1296,-0.1298,-0.1319,-0.1325,-0.1337,-0.1351,-0.1352,-0.1491,-0.1492,0,0,0,-0.1168,-0.1163,-0.1177,-0.1208,-0.1218,-0.1215,-0.1219,-0.1295,-0.1299,-0.1327,-0.1338,-0.1352,-0.1353,-0.149,-0.1492,-0.1463,0,0,0,-0.1166,-0.1154,-0.1175,-0.1167,-0.1216,-0.1255,-0.1216,-0.1293,-0.1303,-0.1337,-0.1352,-0.1354,-0.149,-0.1491,-0.1462,-0.141,0,0,0,-0.1148,-0.1152,-0.1155,-0.1165,-0.119,-0.1254,-0.1263,-0.1296,-0.131,-0.1351,-0.1354,-0.1489,-0.1491,-0.1461,-0.1411,-0.1363,0,0,0,-0.1135,-0.1145,-0.1154,-0.1179,-0.1189,-0.1259,-0.1263,-0.1315,-0.1351,-0.1353,-0.149,-0.1492,-0.1461,-0.1411,-0.1364,-0.1263,-0.1251,0,0,-0.1145,-0.1146,-0.1165,-0.1175,-0.1242,-0.1252,-0.1332,-0.1371,-0.1391,-0.1464,-0.1467,-0.1462,-0.1411,-0.1364,-0.1375,-0.1358,0,0,0,-0.1168,-0.118,-0.1202,-0.1241,-0.1288,-0.133,-0.1385,-0.1409,-0.1461,-0.142,-0.151,-0.1478,-0.1449,-0.1392,-0.1381,-0.1501,-0.15,-0.15,-0.15,-0.1153,-0.1195,-0.1231,-0.1288,-0.1332,-0.1402,-0.1428,-0.1475,-0.1504,-0.1528,-0.1492,-0.1483,-0.1429,-0.1417,-0.1556,-0.1556,-0.1556,-0.1556,-0.1556,-0.1164,-0.1175,-0.1237,-0.1278,-0.1335,-0.139,-0.1466,-0.1482,-0.1498,-0.1532,-0.1505,-0.1412,-0.1402,-0.1555,-0.1555,-0.1555,-0.1555,-0.1555,-0.1556,-0.1133,-0.114,-0.1169,-0.1219,-0.1264,-0.1336,-0.1342,-0.1396,-0.1437,-0.1421,-0.1336,-0.1336,-0.1404,-0.1399,-0.1398,-0.1398,-0.1398,-0.1397,-0.1397,-0.1064,-0.1102,-0.1094,-0.1147,-0.1157,-0.1183,-0.1243,-0.1253,-0.1253,-0.1274,-0.1274,-0.1429,-0.1434,-0.1396,-0.1391,-0.1392,-0.1393,-0.1393,-0.1394,-0.1012,-0.1005,-0.0997,-0.0998,-0.1027,-0.1009,-0.1081,-0.1063,-0.1075,-0.1051,-0.1196,-0.1203,-0.1184,-0.1195,-0.1152,-0.1083,-0.1083,-0.1083,-0.1083,-0.0945,-0.0953,-0.0912,-0.0894,-0.0896,-0.0927,-0.0854,-0.0841,-0.0891,-0.0902,-0.091,-0.0941,-0.0957,-0.0929,-0.0946,-0.0899,-0.0765,-0.0764,-0.0764,-0.0897,-0.0892,-0.0842,-0.0831,-0.0833,-0.0823,-0.0725,-0.0591,-0.0598,-0.0753,-0.0877,-0.1058,-0.1128,-0.1144,-0.1124,-0.1141,-0.1076,0,0]},{"header":{"parameterUnit":"m.s-1","parameterCategory":2,"la1":30.2992,"la2":30.254,"lo1":-89.0895,"lo2":-89.0443,"dy":0.0025,"dx":0.0025,"nx":19,"ny":19,"refTime":"2026-05-23T21:00:00:Z","depth":"2","parameterNumber":3,"parameterNumberName":"V-component_of_CURRENTS"},"data":[0,0,0,0.0274,0.0274,0.0262,0.0262,0.0297,0.0298,0,0,0,0,0,0,0,0,0,0,0,0.0267,0.0267,0.0274,0.0274,0.0262,0.0262,0.0297,0.0298,0,0,0,0,0,0,0,0,0,0,0,0.0267,0.0267,0.0266,0.0274,0.0262,0.0262,0.0297,0.0293,0,0,0,0,0,0,0,0,0,0,0.0298,0.0269,0.0267,0.0266,0.0274,0.0262,0.0262,0.0292,0.0293,0.0318,0,0.0308,0,0.0312,0.0301,0.0302,0,0,0,0.027,0.0268,0.0283,0.0266,0.0274,0.0262,0.0266,0.0292,0.0293,0.032,0.0308,0.031,0.0312,0.0302,0.0302,0.029,0.0289,0,0,0.0271,0.025,0.0282,0.0284,0.0261,0.0267,0.0266,0.0292,0.028,0.0308,0.031,0.0313,0.0302,0.0303,0.029,0.029,0,0,0,0.0276,0.0251,0.0264,0.0282,0.0281,0.0266,0.0265,0.0278,0.0287,0.0311,0.0313,0.0302,0.0303,0.0291,0.029,0.0193,0,0,0,0.0276,0.0254,0.0264,0.025,0.0279,0.0269,0.025,0.0285,0.0288,0.0313,0.0303,0.0304,0.0291,0.029,0.0197,0.0173,0,0,0,0.0269,0.0253,0.0253,0.0249,0.0249,0.0268,0.0278,0.0285,0.0291,0.0302,0.0304,0.0292,0.0291,0.0201,0.0179,0.0137,0,0,0,0.0249,0.0247,0.0251,0.0248,0.0249,0.0253,0.0277,0.0267,0.0269,0.0303,0.0291,0.029,0.0202,0.0182,0.014,0.0231,0.0222,0,0,0.0245,0.0245,0.0248,0.0253,0.0252,0.0255,0.0228,0.0235,0.0259,0.0288,0.0287,0.0196,0.0179,0.0138,0.0153,0.0146,0,0,0,0.0247,0.0241,0.0244,0.0237,0.0246,0.0211,0.0218,0.0206,0.0182,0.0256,0.0195,0.0189,0.0165,0.0227,0.0221,0.0284,0.0284,0.0284,0.0284,0.0179,0.0205,0.0198,0.0213,0.0201,0.0175,0.0139,0.0121,0.0154,0.0109,0.0108,0.0012,0.0075,0.0073,0.0098,0.0098,0.0097,0.0097,0.0097,0.016,0.0155,0.0158,0.016,0.0129,0.0093,0.0052,0.0033,-0.0019,0.0019,-0.0,0.0121,0.0061,0.0089,0.0091,0.0092,0.0092,0.0093,0.0093,0.0102,0.0111,0.0111,0.0106,0.0053,0.0025,-0.0027,-0.0066,-0.0096,-0.0133,-0.0045,-0.0041,-0.0035,-0.0148,-0.0148,-0.0148,-0.0149,-0.0149,-0.0149,0.0047,0.0062,0.0057,0.0052,0.0027,-0.0017,-0.0081,-0.0109,-0.0131,-0.0127,-0.0126,-0.007,-0.0062,-0.0048,-0.0154,-0.0153,-0.0153,-0.0152,-0.0152,0.0018,0.0017,0.0022,0.0012,-0.0005,-0.0016,-0.006,-0.0078,-0.0123,-0.0116,-0.0116,-0.0115,-0.0067,-0.006,-0.0045,-0.0144,-0.0144,-0.0144,-0.0144,-0.0012,-0.0005,0.0001,0.0003,-0.0003,-0.0013,0.0001,0.0015,-0.0019,-0.0018,-0.0024,0.005,0.0047,0.0107,0.011,0.0131,0.0077,0.0077,0.0078,-0.0013,-0.0014,-0.0011,-0.0001,-0.0001,0.0008,0.004,0.0105,0.0127,0.0085,0.0,-0.0126,-0.0029,-0.0029,0.0058,0.0065,0.0097,0,0]}],[{"header":{"parameterUnit":"m.s-1","parameterCategory":2,"la1":30.2992,"la2":30.254,"lo1":-89.0895,"lo2":-89.0443,"dy":0.0025,"dx":0.0025,"nx":19,"ny":19,"refTime":"2026-05-23T21:00:00:Z","depth":"4","parameterNumber":2,"parameterNumberName":"U-component_of_CURRENTS"},"data":[0,0,0,-0.064,-0.0641,-0.0671,-0.0671,-0.0706,-0.0707,0,0,0,0,0,0,0,0,0,0,0,-0.0618,-0.0619,-0.064,-0.0641,-0.0671,-0.0671,-0.0706,-0.0707,0,0,0,0,0,0,0,0,0,0,0,-0.0618,-0.0619,-0.0619,-0.0642,-0.0671,-0.0671,-0.0706,-0.0679,0,0,0,0,0,0,0,0,0,0,-0.0648,-0.0638,-0.0618,-0.0619,-0.0642,-0.0671,-0.0671,-0.0678,-0.0681,-0.0699,0,-0.0711,0,-0.0726,-0.0711,-0.0711,0,0,0,-0.062,-0.0636,-0.0649,-0.0619,-0.0643,-0.0671,-0.0652,-0.0679,-0.0683,-0.0703,-0.0712,-0.0714,-0.0726,-0.0712,-0.0712,-0.0788,-0.0788,0,0,-0.0619,-0.0617,-0.0646,-0.0651,-0.0662,-0.0651,-0.0653,-0.0681,-0.0687,-0.0712,-0.0715,-0.0727,-0.0712,-0.0713,-0.0788,-0.0788,0,0,0,-0.0628,-0.0616,-0.0628,-0.0649,-0.0664,-0.0652,-0.0655,-0.0685,-0.0691,-0.0715,-0.0727,-0.0712,-0.0713,-0.0787,-0.0788,-0.0783,0,0,0,-0.0626,-0.0624,-0.0627,-0.0626,-0.0664,-0.0678,-0.0658,-0.0688,-0.0693,-0.0727,-0.0712,-0.0714,-0.0787,-0.0787,-0.0782,-0.08,0,0,0,-0.0615,-0.0623,-0.063,-0.0626,-0.065,-0.0677,-0.0683,-0.0689,-0.0701,-0.0711,-0.0714,-0.0786,-0.0787,-0.0782,-0.0799,-0.0877,0,0,0,-0.0606,-0.0614,-0.063,-0.0648,-0.065,-0.0682,-0.0683,-0.0719,-0.0732,-0.0713,-0.0787,-0.0788,-0.0782,-0.0798,-0.0875,-0.0639,0,0,0,-0.0607,-0.0614,-0.0625,-0.064,-0.0664,-0.0676,-0.0701,-0.0729,-0.0748,-0.0773,-0.0774,-0.0783,-0.0799,-0.0876,-0.0691,0,0,0,0,-0.0619,-0.0619,-0.0633,-0.0653,-0.0686,-0.0703,-0.0732,-0.0748,-0.0779,-0.0765,-0.0802,-0.0813,-0.0862,-0.0718,-0.0792,-0.0792,-0.0792,-0.0792,-0.0791,-0.0589,-0.0611,-0.0627,-0.0654,-0.0682,-0.0729,-0.0748,-0.0776,-0.0793,-0.0816,-0.0822,-0.0896,-0.0741,-0.0826,-0.0826,-0.0826,-0.0826,-0.0826,-0.0826,-0.0573,-0.0579,-0.0615,-0.0639,-0.0679,-0.0715,-0.0763,-0.0785,-0.0859,-0.0838,-0.0886,-0.0736,-0.0826,-0.0826,-0.0826,-0.0826,-0.0826,-0.0826,-0.0826,-0.0542,-0.0549,-0.0578,-0.0614,-0.0664,-0.0715,-0.0741,-0.0804,-0.0875,-0.0914,-0.0824,-0.0928,-0.0918,-0.0966,-0.0967,-0.0967,-0.0968,-0.0968,-0.0968,-0.0501,-0.053,-0.0536,-0.0585,-0.0618,-0.0662,-0.075,-0.0751,-0.0843,-0.0824,-0.0953,-0.0945,-0.0941,-0.0928,-0.0974,-0.0973,-0.0973,-0.0972,-0.0971,-0.0457,-0.0474,-0.0479,-0.0498,-0.0541,-0.0569,-0.0661,-0.0643,-0.0695,-0.0685,-0.0782,-0.0789,-0.0788,-0.0788,-0.077,-0.0771,-0.0768,-0.0766,0,-0.0421,-0.0426,-0.0417,-0.0415,-0.0413,-0.0495,-0.0453,-0.047,-0.0577,-0.0612,-0.0724,-0.0839,-0.0841,-0.084,-0.0836,-0.0814,0,0,0,-0.0389,-0.0395,-0.0358,-0.0353,-0.0348,-0.0371,-0.0436,-0.0415,-0.061,-0.0448,-0.0695,-0.0713,-0.0671,-0.0993,-0.1012,-0.1006,-0.0989,0,0]},{"header":{"parameterUnit":"m.s-1","parameterCategory":2,"la1":30.2992,"la2":30.254,"lo1":-89.0895,"lo2":-89.0443,"dy":0.0025,"dx":0.0025,"nx":19,"ny":19,"refTime":"2026-05-23T21:00:00:Z","depth":"4","parameterNumber":3,"parameterNumberName":"V-component_of_CURRENTS"},"data":[0,0,0,-0.0012,-0.0012,-0.0021,-0.0022,0.0012,0.0013,0,0,0,0,0,0,0,0,0,0,0,-0.002,-0.002,-0.0012,-0.0012,-0.0021,-0.0022,0.0012,0.0013,0,0,0,0,0,0,0,0,0,0,0,-0.002,-0.002,-0.002,-0.0012,-0.0021,-0.0022,0.0012,0.0003,0,0,0,0,0,0,0,0,0,0,0.0005,-0.0003,-0.002,-0.002,-0.0012,-0.0021,-0.0022,0.0002,0.0004,0.0035,0,0.0037,0,0.0041,0.0018,0.0018,0,0,0,-0.003,-0.0005,-0.0,-0.002,-0.0012,-0.0021,-0.0022,0.0003,0.0005,0.0038,0.0037,0.0039,0.0041,0.0018,0.0019,0.0053,0.0053,0,0,-0.0029,-0.0028,-0.0002,0.0001,-0.0008,-0.0022,-0.0022,0.0003,0.0006,0.0037,0.0039,0.0042,0.0019,0.0019,0.0053,0.0053,0,0,0,-0.0016,-0.0027,-0.0025,-0.0,0.0003,-0.0021,-0.0022,0.0004,0.0006,0.004,0.0042,0.0019,0.002,0.0054,0.0053,-0.0027,0,0,0,-0.0016,-0.0018,-0.0025,-0.0025,0.0002,-0.0002,-0.0022,0.0004,0.0007,0.0042,0.0019,0.0021,0.0054,0.0053,-0.0025,-0.0056,0,0,0,-0.0021,-0.0018,-0.0017,-0.0025,-0.0019,-0.0003,-0.0,0.0004,0.001,0.0018,0.0021,0.0054,0.0054,-0.0022,-0.0052,-0.0018,0,0,0,-0.0024,-0.0042,-0.0017,-0.004,-0.0019,-0.0037,-0.0001,-0.0006,-0.0003,0.002,0.0054,0.0053,-0.0022,-0.0049,-0.0016,-0.0037,0,0,0,-0.0054,-0.0045,-0.0063,-0.004,-0.0079,-0.0037,-0.0069,-0.0042,0.0003,0.0047,0.0047,-0.0025,-0.0051,-0.0017,-0.0061,0,0,0,0,-0.0079,-0.0091,-0.0099,-0.0111,-0.0107,-0.0114,-0.0079,-0.0061,-0.0039,0.0008,-0.0011,-0.0024,-0.0,-0.0008,0.0051,0.0051,0.0051,0.0051,0.0052,-0.0118,-0.0129,-0.0165,-0.0175,-0.0181,-0.0161,-0.0164,-0.0126,-0.0075,-0.0075,-0.008,-0.0097,-0.011,-0.0069,-0.0069,-0.0069,-0.007,-0.007,-0.007,-0.0168,-0.0189,-0.0207,-0.0247,-0.0248,-0.0259,-0.0233,-0.0206,-0.0169,-0.0141,-0.0113,-0.0082,-0.0078,-0.0076,-0.0075,-0.0074,-0.0074,-0.0073,-0.0073,-0.0185,-0.02,-0.0225,-0.0279,-0.0317,-0.0312,-0.0327,-0.0297,-0.0228,-0.0225,-0.0159,-0.0124,-0.0124,-0.0182,-0.0182,-0.0182,-0.0182,-0.0182,-0.0182,-0.0185,-0.0215,-0.0259,-0.0312,-0.035,-0.0375,-0.0376,-0.0367,-0.0304,-0.0239,-0.0219,-0.0133,-0.0129,-0.0128,-0.0182,-0.0182,-0.0182,-0.0182,-0.0182,-0.0209,-0.0214,-0.0276,-0.032,-0.0401,-0.0414,-0.0422,-0.0392,-0.0353,-0.0302,-0.0224,-0.0222,-0.0178,-0.0172,-0.0171,-0.024,-0.0241,-0.0241,0,-0.0213,-0.0223,-0.0294,-0.0361,-0.0418,-0.0438,-0.0418,-0.0407,-0.0331,-0.0291,-0.0328,-0.0239,-0.0237,-0.0189,-0.0184,-0.0184,0,0,0,-0.0228,-0.0242,-0.029,-0.0356,-0.0429,-0.0414,-0.0409,-0.0393,-0.0316,-0.0357,-0.0252,-0.0249,-0.0317,-0.0183,-0.0109,-0.0104,-0.0098,0,0]}]]